N5ZKK Weather Reports


Display with metric or nautical units.
time (UTC)temp
F
wind
direction
speed
MPH
gust
MPH
rain 1hr
in
rain 24hr
in
rain mn
in
humidity
%
barometer
mb
20260510024517 75 0.0 0.0 0.00 0.00 0.00 75 1013.0
20260510023552 75 0.0 0.0 0.00 0.00 0.00 74 1012.9
20260510022516 76 0.0 0.0 0.00 0.00 0.00 74 1012.8
20260510022513 76 0 0.0 0.0 0.00 0.00 0.00 72 1010.3
20260510021518 77 0.0 0.0 0.00 0.00 0.00 72 1012.7
20260510020541 78 0.0 0.0 0.00 0.00 0.00 67 1012.4
20260510015523 79 0.0 0.0 0.00 0.00 0.00 65 1012.2
20260510015513 79 0 0.0 0.0 0.00 0.00 0.00 63 1009.4
20260510014525 81 0.0 0.0 0.00 0.00 0.00 62 1011.9
20260510013528 82 0.0 0.0 0.00 0.00 0.00 58 1011.8
20260510012530 84 0.0 0.0 0.00 0.00 0.00 54 1011.7
20260510012513 85 0 0.0 0.0 0.00 0.00 0.00 53 1008.4
20260510011552 87 0.0 0.0 0.00 0.00 0.00 51 1011.7
20260510010536 90 0.0 0.0 0.00 0.00 0.00 47 1011.7
20260510005519 92 0.0 0.0 0.00 0.00 0.00 46 1011.4
20260510005513 94 0 0.0 0.0 0.00 0.00 0.00 42 1007.1
20260510004521 96 259 0.0 1.0 0.00 0.00 0.00 40 1011.3
20260510003522 97 179 1.0 2.0 0.00 0.00 0.00 39 1011.3
20260510002525 99 203 0.0 2.0 0.00 0.00 0.00 38 1011.3
20260510002513 98 180 0.0 1.0 0.00 0.00 0.00 39 1006.6
20260510001521 100 225 0.0 2.0 0.00 0.00 0.00 38 1011.3
20260510000517 101 258 0.0 2.0 0.00 0.00 0.00 37 1011.3
20260509235531 100 171 1.0 3.0 0.00 0.00 0.00 36 1011.2
20260509235513 100 200 1.0 2.0 0.00 0.00 0.00 37 1006.3
20260509234515 100 187 1.0 3.0 0.00 0.00 0.00 37 1011.1
20260509233517 98 176 1.0 4.0 0.00 0.00 0.00 39 1011.1
20260509232519 96 182 3.0 6.0 0.00 0.00 0.00 40 1011.1
20260509232513 96 152 3.0 6.0 0.00 0.00 0.00 39 1006.6
20260509231521 97 203 3.0 5.0 0.00 0.00 0.00 40 1011.1
20260509230523 97 226 2.0 5.0 0.00 0.00 0.00 39 1011.2
20260509225526 97 250 2.0 5.0 0.00 0.00 0.00 38 1011.3
20260509225513 96 70 0.0 2.0 0.00 0.00 0.00 38 1006.8
20260509224548 97 265 3.0 5.0 0.00 0.00 0.00 39 1011.3
20260509223530 96 228 3.0 5.0 0.00 0.00 0.00 40 1011.2
20260509222552 94 194 2.0 4.0 0.00 0.00 0.00 41 1011.2
20260509222513 93 129 2.0 4.0 0.00 0.00 0.00 41 1007.1
20260509221516 95 217 3.0 5.0 0.00 0.00 0.00 41 1011.3
20260509220519 95 311 2.0 4.0 0.00 0.00 0.00 42 1011.2
20260509215541 95 332 3.0 5.0 0.00 0.00 0.00 42 1011.3
20260509215513 95 303 2.0 4.0 0.00 0.00 0.00 41 1006.9
20260509214523 96 263 3.0 6.0 0.00 0.00 0.00 42 1011.4
20260509213519 93 352 3.0 4.0 0.00 0.00 0.00 45 1011.6
20260509212516 94 250 2.0 3.0 0.00 0.00 0.00 45 1011.7
20260509212513 93 49 2.0 4.0 0.00 0.00 0.00 44 1007.4
20260509211610 94 23 4.0 7.0 0.00 0.00 0.00 44 1011.7
20260509210532 92 331 0.0 2.0 0.00 0.00 0.00 47 1011.8
20260509205516 96 252 3.0 4.0 0.00 0.00 0.00 42 1012.0
20260509205513 92 227 1.0 3.0 0.00 0.00 0.00 46 1007.9
20260509204538 93 246 2.0 4.0 0.00 0.00 0.00 46 1012.4
20260509203540 94 265 3.0 5.0 0.00 0.00 0.00 45 1012.5
20260509202522 92 80 2.0 4.0 0.00 0.00 0.00 49 1012.6
20260509202513 92 27 2.0 4.0 0.00 0.00 0.00 47 1008.7
20260509201525 93 95 2.0 3.0 0.00 0.00 0.00 45 1012.8
20260509200527 94 33 3.0 5.0 0.00 0.00 0.00 43 1013.0
20260509195529 92 181 3.0 4.0 0.00 0.00 0.00 47 1013.0
20260509195513 93 193 4.0 6.0 0.00 0.00 0.00 42 1008.8
20260509194531 94 236 4.0 7.0 0.00 0.00 0.00 44 1013.1
20260509193533 93 261 4.0 8.0 0.00 0.00 0.00 48 1013.3
20260509192517 91 25 3.0 5.0 0.00 0.00 0.00 52 1013.3
20260509192513 93 317 2.0 5.0 0.00 0.00 0.00 48 1009.1
20260509191519 93 275 4.0 9.0 0.00 0.00 0.00 50 1013.3
20260509190520 91 125 3.0 7.0 0.00 0.00 0.00 50 1013.6
20260509185516 92 290 5.0 8.0 0.00 0.00 0.00 51 1013.8
20260509185513 92 251 4.0 6.0 0.00 0.00 0.00 51 1009.6
20260509184544 93 252 5.0 7.0 0.00 0.00 0.00 51 1013.8
20260509183526 89 230 3.0 5.0 0.00 0.00 0.00 56 1013.9
20260509182529 89 203 2.0 5.0 0.00 0.00 0.00 57 1014.1
20260509182513 89 239 2.0 4.0 0.00 0.00 0.00 54 1010.6
20260509181531 88 206 3.0 6.0 0.00 0.00 0.00 58 1014.3
20260509180533 90 109 3.0 6.0 0.00 0.00 0.00 55 1014.5
20260509175516 88 141 3.0 6.0 0.00 0.00 0.00 59 1014.5
20260509175513 86 171 4.0 6.0 0.00 0.00 0.00 60 1011.1
20260509174519 86 201 4.0 7.0 0.00 0.00 0.00 64 1014.8
20260509173521 87 237 4.0 6.0 0.00 0.00 0.00 64 1014.9
20260509172523 86 165 5.0 6.0 0.00 0.00 0.00 65 1014.9
20260509172513 85 138 3.0 5.0 0.00 0.00 0.00 66 1011.6
20260509171525 85 223 5.0 8.0 0.00 0.00 0.00 68 1014.9
20260509170527 84 161 3.0 6.0 0.00 0.00 0.00 68 1015.1
20260509165610 85 97 3.0 5.0 0.00 0.00 0.00 68 1015.2
20260509165513 83 165 2.0 4.0 0.00 0.00 0.00 70 1012.0
20260509164606 83 223 3.0 5.0 0.00 0.00 0.00 73 1015.1
20260509163516 82 213 4.0 7.0 0.00 0.00 0.00 74 1015.3
20260509162518 81 144 4.0 7.0 0.00 0.00 0.00 76 1015.4
20260509162513 80 171 3.0 6.0 0.00 0.00 0.00 77 1012.6
20260509161521 79 151 4.0 8.0 0.00 0.00 0.00 79 1015.4
20260509160523 80 174 5.0 8.0 0.00 0.00 0.00 78 1015.1
20260509155546 78 96 3.0 5.0 0.00 0.00 0.00 82 1015.3
20260509155513 78 99 3.0 5.0 0.00 0.00 0.00 82 1012.7
20260509154548 78 143 4.0 8.0 0.00 0.00 0.00 82 1015.1
20260509153530 78 74 3.0 6.0 0.00 0.00 0.00 82 1014.9
20260509152532 78 145 4.0 8.0 0.00 0.00 0.00 82 1014.8
20260509152513 79 129 4.0 5.0 0.00 0.00 0.00 78 1011.9
20260509151516 79 128 3.0 5.0 0.00 0.00 0.00 79 1014.7
20260509150518 81 208 3.0 4.0 0.00 0.00 0.00 75 1014.5
20260509145540 78 0.0 0.0 0.00 0.00 0.00 81 1014.7
20260509145513 76 58 1.0 3.0 0.00 0.00 0.00 84 1012.4
20260509144523 74 146 3.0 4.0 0.00 0.00 0.00 87 1014.7
20260509143525 74 219 3.0 6.0 0.00 0.00 0.00 88 1014.8
20260509142527 73 177 3.0 5.0 0.00 0.00 0.00 89 1014.7
20260509142513 72 172 1.0 3.0 0.00 0.00 0.00 89 1012.5
20260509141529 72 187 3.0 5.0 0.00 0.00 0.00 91 1014.5
20260509140525 71 0.0 0.0 0.00 0.00 0.00 93 1015.2
20260509135515 71 40 1.0 3.0 0.00 0.00 0.00 94 1015.4
20260509135513 70 11 1.0 3.0 0.00 0.00 0.00 95 1013.6
20260509134517 70 343 3.0 5.0 0.00 0.00 0.00 96 1015.3
20260509133520 71 15 1.0 3.0 0.00 0.00 0.00 96 1015.1
20260509132522 70 0.0 0.0 0.00 0.00 0.00 98 1014.9
20260509132513 69 0 0.0 0.0 0.00 0.00 0.00 98 1013.2
20260509131524 69 232 1.0 2.0 0.00 0.00 0.00 99 1014.9
20260509130547 69 0.0 0.0 0.00 0.00 0.00 99 1014.9
20260509125529 68 359 1.0 3.0 0.00 0.00 0.00 99 1014.8
20260509125513 68 24 1.0 4.0 0.00 0.00 0.00 99 1013.3
20260509124531 68 0.0 3.0 0.00 0.00 0.00 99 1015.0
20260509123515 68 59 1.0 3.0 0.00 0.00 0.00 99 1015.1
20260509122518 68 0.0 0.0 0.00 0.00 0.00 99 1015.0
20260509122513 67 202 0.0 1.0 0.00 0.00 0.00 99 1013.4
20260509121520 68 38 1.0 3.0 0.00 0.00 0.00 99 1014.8
20260509120522 68 27 2.0 5.0 0.00 0.00 0.00 99 1014.5
20260509115545 68 27 3.0 6.0 0.00 0.00 0.00 99 1014.7
20260509115513 67 29 3.0 5.0 0.00 0.00 0.00 99 1013.2
20260509114526 68 11 5.0 9.0 0.00 0.00 0.00 99 1014.9
20260509113549 68 23 4.0 5.0 0.00 0.00 0.00 99 1015.0
20260509112546 68 22 5.0 8.0 0.00 0.00 0.00 99 1015.0
20260509112513 68 29 5.0 8.0 0.00 0.00 0.00 99 1013.5
20260509111516 68 17 6.0 8.0 0.00 0.00 0.00 99 1015.1
20260509110519 68 341 5.0 8.0 0.00 0.00 0.00 99 1015.0
20260509105521 68 0.0 0.0 0.00 0.00 0.00 99 1014.1
20260509105513 67 0 0.0 0.0 0.00 0.00 0.00 99 1012.6
20260509104543 68 0.0 0.0 0.00 0.00 0.00 99 1013.9
20260509103525 68 0.0 0.0 0.00 0.00 0.00 99 1013.9
20260509102528 68 0.0 0.0 0.00 0.00 0.00 99 1013.9
20260509102513 67 0 0.0 0.0 0.00 0.00 0.00 99 1012.3
20260509101550 68 0.0 0.0 0.00 0.00 0.00 99 1013.8
20260509100552 68 0.0 0.0 0.00 0.00 0.00 99 1013.6
20260509095517 68 0.0 0.0 0.00 0.00 0.00 99 1013.6
20260509095513 67 0 0.0 0.0 0.00 0.00 0.00 99 1012.1
20260509094519 68 0.0 0.0 0.00 0.00 0.00 99 1013.3
20260509093521 68 0.0 0.0 0.00 0.00 0.00 99 1013.3
20260509092603 68 0.0 0.0 0.00 0.00 0.00 99 1013.3
20260509092513 67 0 0.0 0.0 0.00 0.00 0.00 99 1011.8
20260509091526 67 0.0 0.0 0.00 0.00 0.00 99 1013.2
20260509090528 67 0.0 0.0 0.00 0.00 0.00 99 1013.1
20260509085530 67 0.0 0.0 0.00 0.00 0.00 99 1013.3
20260509085513 67 0 0.0 0.0 0.00 0.00 0.00 99 1011.9
20260509084546 67 0.0 0.0 0.00 0.00 0.00 99 1013.5
20260509083523 67 0.0 0.0 0.00 0.00 0.00 99 1013.8
20260509082519 67 0.0 0.0 0.00 0.00 0.00 99 1013.9
20260509082513 67 0 0.0 0.0 0.00 0.00 0.00 99 1012.6
20260509081516 67 357 1.0 3.0 0.00 0.00 0.00 99 1014.0
20260509080538 67 0.0 0.0 0.00 0.00 0.00 99 1013.9
20260509075520 67 0.0 0.0 0.00 0.00 0.00 99 1013.8
20260509075513 66 0 0.0 0.0 0.00 0.00 0.00 99 1012.5
20260509074523 67 0.0 0.0 0.00 0.00 0.00 99 1013.8
20260509073525 67 0.0 0.0 0.00 0.00 0.00 99 1013.8
20260509072522 66 0.0 0.0 0.00 0.00 0.00 99 1013.8
20260509072513 66 0 0.0 0.0 0.00 0.00 0.00 99 1012.5
20260509071525 66 0.0 0.0 0.00 0.00 0.00 99 1013.8
20260509070527 66 0.0 0.0 0.00 0.00 0.00 99 1013.8
20260509065529 66 0.0 0.0 0.00 0.00 0.00 99 1013.8
20260509065513 66 0 0.0 0.0 0.00 0.00 0.00 99 1012.6
20260509064532 66 0.0 0.0 0.00 0.00 0.00 99 1014.0
20260509063515 66 0.0 0.0 0.00 0.00 0.00 99 1014.0
20260509062518 66 0.0 0.0 0.00 0.00 0.00 99 1014.0
20260509062513 65 0 0.0 0.0 0.00 0.00 0.00 99 1012.8
20260509061540 66 0.0 0.0 0.00 0.00 0.00 99 1014.0
20260509060543 65 0.0 0.0 0.00 0.00 0.00 99 1013.8
20260509055605 65 0.0 0.0 0.00 0.00 0.00 99 1013.9
20260509055513 65 0 0.0 0.0 0.00 0.00 0.00 99 1012.8
20260509054521 65 0.0 0.0 0.00 0.00 0.00 99 1014.3
20260509053518 65 0.0 0.0 0.00 0.00 0.00 99 1014.3
20260509052552 65 0.0 0.0 0.00 0.00 0.00 99 1014.3
20260509052513 64 0 0.0 0.0 0.00 0.00 0.00 99 1013.2
20260509051516 65 0.0 0.0 0.00 0.00 0.00 99 1014.3
20260509050518 65 0.0 0.0 0.00 0.00 0.00 99 1014.3
20260509045521 66 0.0 0.0 0.00 0.00 0.00 99 1014.1
20260509045513 65 0 0.0 0.0 0.00 0.00 0.00 99 1013.0
20260509044523 65 0.0 0.0 0.00 0.00 0.00 99 1013.9
20260509043525 65 0.0 0.0 0.00 0.00 0.00 99 1013.9
20260509042528 65 0.0 0.0 0.00 0.00 0.00 99 1013.7
20260509042513 64 0 0.0 0.0 0.00 0.00 0.00 99 1012.3
20260509041530 65 0.0 0.0 0.00 0.00 0.00 99 1013.4
20260509040532 64 199 0.0 2.0 0.00 0.00 0.00 99 1012.9
20260509035516 64 0.0 0.0 0.00 0.00 0.00 99 1013.0
20260509035513 64 0 0.0 0.0 0.00 0.00 0.00 99 1011.7
20260509034518 64 236 0.0 2.0 0.00 0.00 0.00 99 1012.8
20260509033540 64 0.0 0.0 0.00 0.00 0.00 99 1012.9
20260509032522 65 0.0 0.0 0.00 0.00 0.00 99 1012.9
20260509032513 64 0 0.0 0.0 0.00 0.00 0.00 99 1011.7
20260509031525 65 0.0 0.0 0.00 0.00 0.00 99 1012.9
20260509030521 66 0.0 0.0 0.00 0.00 0.00 99 1012.8
20260509025517 66 0.0 0.0 0.00 0.00 0.00 98 1012.8
20260509025513 66 0 0.0 0.0 0.00 0.00 0.00 98 1011.5